Weather in Temurmalik

Tajikistan     38°02′57″N   69°35′16″E
temp.,
°C
wind,
m/s
gust,
m/s
humid.,
%
clouds,
%
prec.,
mm/h
press.,
hPa
HPBL,
m
16 april, fri
fri1623:00+11nne45840 1.0 101762
02:00+10nne46800 0.0 101669
05:00+9nne47795 0.0 101784
08:00+14ne46674 0.0 1017189
11:00+20ne22450 0.0 10171052
14:00+23ssw11359 0.0 10152300
17:00+22wsw124120 0.0 10141682
20:00+15nw115033 0.0 101511
17 april, sat
sat1723:00+12nne4561100 0.0 101649
02:00+12nne4562100 0.0 101556
05:00+11nne45614 0.0 101661
08:00+15nne45601 0.0 1017161
11:00+21ssw11420 0.0 1016986
14:00+22sw223613 0.0 10142594
17:00+22ssw22405 0.0 10132193
20:00+16n2257100 0.0 101521
18 april, sun
sun1823:00+15ene2260100 0.0 101614
02:00+13ene1168100 0.1 101613
05:00+12ne1175100 0.2 101912
08:00+15ssw255799 0.0 1022580
11:00+18ssw4644100 0.1 10232076
14:00+17se56559 0.0 1022617
17:00+19e23445 0.0 10201808
20:00+12nne59680 0.0 1022142
19 april, mon
mon1923:00+11nne5965100 0.0 1021123
02:00+10nne596382 0.0 1020129
05:00+10nne59645 0.0 1020138
08:00+14nne5862100 0.0 1019250
11:00+20nne443798 0.0 10161191
14:00+22nne22305 0.0 10121580
17:00+22nw1133100 0.0 10101137
20:00+15n2242100 0.0 101111
20 april, tue
tue2023:00+13nne4547100 0.0 101251
02:00+12nne4548100 0.0 101158
05:00+12nne3348100 0.0 101138
08:00+16nne2355100 0.0 1012113
11:00+22sw11374 0.0 10101013
14:00+24sw123080 0.0 10081961
17:00+23s124099 0.0 1007655
20:00+16w1147100 0.0 100911